Location: lozzo di cadore
(46.4899°N, 12.4508°E)
Time: 13:27:43
(UTC+02:00)

Envisat - Pass Details

Date: 04 May 2025
Orbit: 761 x 763 km, 98.3° (Epoch: 14 May)

Event Time Altitude Azimuth Distance (km) Brightness Sun altitude
Rises 03:16:32 0° 23° (NNE) 3,233 7.7 -21.0°
Reaches altitude 10° 03:19:08 10° 35° (NE) 2,302 6.7 -20.8°
Maximum altitude 03:23:32 29° 95° (E) 1,376 4.6 -20.4°
Enters shadow 03:27:29 12° 152° (SSE) 2,158 5.1 -20.0°
